Location: Krakow
(50.0830°N, 19.9170°E)
Time: 07:36:32
(UTC+02:00)

A-11 Canister half - Pass Details

Date: 17 March 2026
Orbit: 1523 x 1684 km, 47.3° (Epoch: 18 April)

Event Time Altitude Azimuth Distance (km) Brightness Sun altitude
Rises 08:16:58 0° 216° (SW) 4,897 11.6 21.7°
Reaches altitude 10° 08:20:22 10° 210° (SSW) 3,895 11.2 22.1°
Maximum altitude 08:29:24 41° 144° (SE) 2,200 11.3 23.3°
Drops below altitude 10° 08:38:10 10° 79° (E) 3,791 11.8 24.5°
Sets 08:41:25 0° 73° (ENE) 4,756 12.1 24.9°
